Deming, NM

12:45 AM MDT on March 30, 2017 (GMT -0600)
Deming Municipal

Weather History for KDMN - April, 2014

Change the Weather History Date:

Tuesday, April 22, 2014

  Actual Average Record
Temperature  
Mean Temperature 70 °F 62 °F  
Max Temperature 89 °F 80 °F 96 °F (1965)
Min Temperature 50 °F 44 °F 29 °F (1967)
Cooling Degree Days 5    
Growing Degree Days 20 (Base 50)    
Moisture  
Dew Point 29 °F    
Average Humidity 33    
Maximum Humidity 59    
Minimum Humidity 7    
Precipitation  
Precipitation 0.00 in 0.01 in 0.20 in (1987)
Month to date precipitation 0.20 0.28  
Year to date precipitation 0.57 1.90  
Sea Level Pressure  
Sea Level Pressure 29.78 in    
Wind  
Wind Speed 12 mph (SSW)    
Max Wind Speed 23 mph    
Max Gust Speed 31 mph    
Visibility 10 miles    
Events      
T = Trace of Precipitation, MM = Missing Value Source: NWS Daily Summary

Daily Weather History Graph

Daily Weather History Graph

Search for Another Location

Airport or City:

Trip Planner

Search our weather history database for the weather conditions in past years. The results will help you decide how hot, cold, wet, or windy it might be!

Date:

Astronomy

Apr. 22, 2014 Rise Set
Actual Time 6:33 AM MDT 7:45 PM MDT
Civil Twilight 6:08 AM MDT 8:11 PM MDT
Nautical Twilight 5:37 AM MDT 8:41 PM MDT
Astronomical Twilight 5:06 AM MDT 9:12 PM MDT
Moon 2:00 AM MDT (4/22) 1:13 PM MDT (4/22)
Length of Visible Light 14h 02m
Length of Day
13h 11m
Last Quarter, 45% of the Moon is Illuminated
Apr 22
Last Quarter
Apr 29
New
May 6
First Quarter
May 14
Full
May 21
Last Quarter

Hourly Weather History & Observations

Time (MDT) Temp. Dew Point Humidity Pressure Visibility Wind Dir Wind Speed Gust Speed Precip Events Conditions
12:53 AM 55.0 °F 30.9 °F 40% 29.90 in 10.0 mi Calm Calm - N/A   Clear
1:53 AM 54.0 °F 35.1 °F 49% 29.89 in 10.0 mi WNW 3.5 mph - N/A   Clear
2:53 AM 54.0 °F 37.9 °F 55% 29.89 in 10.0 mi NNW 5.8 mph - N/A   Clear
3:53 AM 52.0 °F 37.0 °F 57% 29.89 in 10.0 mi NNE 5.8 mph - N/A   Clear
4:53 AM 53.1 °F 30.0 °F 41% 29.88 in 10.0 mi NNE 4.6 mph - N/A   Clear
5:53 AM 54.0 °F 28.0 °F 37% 29.89 in 10.0 mi ENE 10.4 mph - N/A   Clear
6:53 AM 53.1 °F 30.0 °F 41% 29.90 in 10.0 mi ENE 9.2 mph - N/A   Clear
7:53 AM 63.0 °F 34.0 °F 34% 29.90 in 10.0 mi NE 10.4 mph - N/A   Clear
8:53 AM 69.1 °F 37.9 °F 32% 29.90 in 10.0 mi ENE 9.2 mph - N/A   Clear
9:53 AM 75.9 °F 37.0 °F 24% 29.88 in 10.0 mi East 15.0 mph 20.7 mph N/A   Clear
10:53 AM 80.1 °F 35.1 °F 20% 29.86 in 10.0 mi SE 15.0 mph 21.9 mph N/A   Clear
11:53 AM 84.0 °F 32.0 °F 15% 29.83 in 10.0 mi SSE 19.6 mph 31.1 mph N/A   Clear
12:53 PM 84.9 °F 30.9 °F 14% 29.81 in 10.0 mi SSE 16.1 mph 26.5 mph N/A   Clear
1:53 PM 88.0 °F 28.9 °F 12% 29.76 in 10.0 mi South 18.4 mph 28.8 mph N/A   Partly Cloudy
2:53 PM 86.0 °F 27.0 °F 12% 29.73 in 10.0 mi South 17.3 mph 23.0 mph N/A   Clear
3:53 PM 87.1 °F 25.0 °F 10% 29.69 in 10.0 mi South 15.0 mph 27.6 mph N/A   Clear
4:53 PM 87.1 °F 23.0 °F 10% 29.65 in 10.0 mi South 11.5 mph - N/A   Clear
5:53 PM 87.1 °F 18.0 °F 8% 29.62 in 10.0 mi SW 16.1 mph 23.0 mph N/A   Clear
6:53 PM 84.9 °F 19.9 °F 9% 29.63 in 10.0 mi West 18.4 mph 24.2 mph N/A   Clear
7:53 PM 81.0 °F 19.9 °F 10% 29.62 in 10.0 mi West 12.7 mph - N/A   Clear
8:53 PM 75.0 °F 21.9 °F 14% 29.63 in 10.0 mi West 9.2 mph - N/A   Clear
9:53 PM 75.0 °F 25.0 °F 16% 29.63 in 10.0 mi West 9.2 mph - N/A   Clear
10:53 PM 71.1 °F 25.0 °F 18% 29.65 in 10.0 mi WSW 11.5 mph - N/A   Clear
11:53 PM 70.0 °F 25.0 °F 18% 29.64 in 10.0 mi West 11.5 mph - N/A   Clear